Home   Weather   Chattanooga   Past weeks

Flag for USA Past Weather in Chattanooga, Tennessee, USA — Yesterday and Last 2 Weeks

Now
67 °F

Light rain. Fog.


Feels Like: 67 °F
Forecast: 59 / 73 °F
Wind: 3 mph from Southeast

Location: Lovell Field

Current Time: Apr 30, 2017 at 10:32:03 pm

Latest Report: Apr 30, 2017 at 9:12 pm


Visibility: 6 mi

Pressure: 29.97 "Hg

Humidity: 93%

Dew Point: 65 °F

Location of ChattanoogaLocation

Past Weather in Chattanooga — Graph

°F

Chattanooga Temperature Yesterday

Maximum temperature yesterday: 89 °F (at 3:53 pm)
Minimum temperature yesterday: 65 °F (at 5:53 am)
Average temperature yesterday: 76 °F

High & Low Weather Summary for the Past Weeks

 TemperatureHumidityPressure
High89 °F (Apr 29, 3:53 pm)100% (Apr 18, 7:16 am)30.27 "Hg (Apr 18, 7:16 am)
Low54 °F (Apr 25, 6:53 am)36% (Apr 16, 5:53 pm)29.67 "Hg (Apr 27, 4:53 am)
Average68 °F79%29.95 "Hg
* Reported Apr 15 9:53 pm — Apr 30 9:12 pm, Chattanooga, Weather by CustomWeather, © 2017

Note: Actual official high and low records may vary slightly from our data, if they occured in-between our weather recording intervals... More about our weather records

Advertising

Chattanooga Weather History for the Previous 24 Hours

Scroll right to see more
 ConditionsComfort  
Time TempWeatherWind HumidityBarometerVisibility
9:12 pm
Sun, Apr 30
67 °FLight rain. Fog.3 mph93%29.97 "Hg6 mi
7:53 pm67 °FRain. Fog.5 mph90%29.97 "Hg3 mi
7:23 pm67 °FLight rain. Fog.7 mph90%29.98 "Hg6 mi
7:00 pm68 °FRain. Fog.8 mph87%29.98 "Hg2 mi
6:39 pm68 °FThunderstorms. Fog.5 mph88%29.99 "Hg4 mi
5:53 pm80 °FBroken clouds.14 mph58%29.92 "Hg10 mi
4:53 pm81 °FBroken clouds.14 mph56%29.93 "Hg10 mi
3:53 pm81 °FBroken clouds.15 mph56%29.96 "Hg10 mi
2:53 pm82 °FBroken clouds.10 mph56%29.99 "Hg10 mi
1:53 pm80 °FBroken clouds.15 mph60%30.00 "Hg10 mi
12:53 pm79 °FBroken clouds.10 mph67%30.01 "Hg10 mi
11:53 am75 °FMostly cloudy.14 mph76%30.06 "Hg8 mi
10:53 am75 °FBroken clouds.9 mph79%30.03 "Hg5 mi
9:53 am73 °FPartly sunny.9 mph84%30.03 "Hg7 mi
8:53 am73 °FMostly cloudy.10 mph81%30.03 "Hg6 mi
7:53 am71 °FPartly sunny.3 mph87%30.00 "Hg7 mi
6:53 am69 °FFog.3 mph90%29.96 "Hg6 mi
5:53 am67 °FFog.No wind97%29.98 "Hg5 mi
4:53 am68 °FClear.No wind93%29.97 "Hg7 mi
4:28 am68 °FFog.No wind96%30.00 "Hg4 mi
4:18 am67 °FFog.3 mph97%30.00 "Hg2 mi
2:53 am69 °FFog.3 mph96%30.00 "Hg4 mi
2:28 am69 °FFog.3 mph96%30.04 "Hg5 mi
2:19 am68 °FFog.No wind100%30.05 "Hg2 mi
1:53 am69 °FFog.No wind96%30.02 "Hg2 mi
1:39 am68 °FFog.No wind100%30.04 "Hg1 mi
1:20 am69 °FFog.No wind96%30.04 "Hg1 mi
12:53 am68 °FFog.3 mph96%30.01 "Hg1 mi
12:35 am70 °FFog.No wind97%30.04 "Hg1 mi
11:43 pm
Sat, Apr 29
70 °FFog.No wind97%30.06 "Hg3 mi
10:53 pm71 °FPassing clouds.3 mph93%30.04 "Hg8 mi
10:17 pm72 °FPartly cloudy.No wind93%30.06 "Hg8 mi
10:03 pm72 °FThundershowers. Partly cloudy.5 mph93%30.05 "Hg8 mi
Weather by CustomWeather, © 2017

See weather overviewHow to use our weather pages